Racecast

Cadence Hinson

Handley (AL) · 11 · AL D4A · Compare head to head

Athlete rating 95.1 2025 XC season
Best race 111.4 TF
Races 52
Seasons 5 2021 — 2025

RankedNation #88121·AL #926·AL D4A #698·Team #10 ?

Rating scale ?
Speed rating — all races

Cross Country

XC speed rating

2025 XC 92.0

Handley (AL) · Grade 11

Date Meet Event Result Place Rating Difficulty PR/SR Flags
2025-11-08 Oakville Indian Mounds Park 5000m 25:57.3 582nd · 2nd on team 93.5 -0.012 CSR
2025-10-30 Keisel Park 5000m 25:41.2 30th · 3rd on team 95.9 +0.009 ★CR SR CSR RSR
2025-10-18 White Plains Youth Sports Complex 5000m 26:26.8 35th · 2nd on team 94.9 +0.024 SR CSR RSR
2025-08-30 Oxford Lake Park (Sports Complex) 5000m 27:15.5 100th · 2nd on team 90.4 +0.002 SR CSR RSR
2025-08-23 White Plains Youth Sports Complex 5000m 29:04.5 41st · 2nd on team 85.3 +0.024 SR CSR RSR

2024 XC 87.3

Handley (AL) · Grade 10

Date Meet Event Result Place Rating Difficulty PR/SR Flags
2024-11-09 Oakville Indian Mounds Park 5000m 28:43.3 144th · 3rd on team 85.2 -0.012 CSR
2024-10-19 White Plains Youth Sports Complex 5000m 28:17.3 49th · 3rd on team 89.4 +0.024 CSR
2024-10-12 Central High School of Clay 5000m 28:39.4 51st · 3rd on team 87.1 +0.011 CSR
2024-09-21 Munford High School 5000m 27:29.9 61st · 2nd on team 89.7 -0.002 SR CSR RSR
2024-08-31 Oxford Lake Park (Sports Complex) 5000m 27:48.5 67th · 2nd on team 89.3 +0.002 SR CSR RSR
2024-08-22 White Plains Youth Sports Complex 5000m 30:26.9 49th · 3rd on team 82.9 +0.024 SR CSR RSR

2023 XC 96.7

Handley (AL) · Grade 9

Date Meet Event Result Place Rating Difficulty PR/SR Flags
2023-11-11 Oakville Indian Mounds Park 5000m 25:20.1 100th · 2nd on team 96.3 -0.012 SR CSR
2023-11-02 Veteran's Park 5000m 25:33 29th · 3rd on team 100.5 +0.042 ★CR SR CSR RSR
2023-10-14 White Plains Youth Sports Complex 5000m 25:41.7 43rd · 3rd on team 99.5 +0.024 ★CR SR CSR RSR
2023-09-23 Munford High School 5000m 25:41.9 43rd · 3rd on team 96.5 -0.002 ★CR SR CSR RSR
2023-09-16 Point 5000m 26:22.7 33rd · 3rd on team 95.5 +0.015 ★CR SR CSR RSR
2023-09-02 Oxford Lake Park (Sports Complex) 5000m 26:44.9 77th · 3rd on team 91.7 +0.002 ★CR SR CSR RSR

2022 XC 96.0

Handley (AL) · Grade 8

Date Meet Event Result Place Rating Difficulty PR/SR Flags
2022-11-05 Oakville Indian Mounds Park 5000m 24:09.5 88th · 2nd on team -0.012 ★PR ★CR SR CSR
2022-09-23 Veteran's Park 5000m 27:41.9 47th · 2nd on team 103.3 +0.042 PR CR R SR CSR RSR
2022-09-10 Central High School of Clay 5000m 28:14.1 43rd · 2nd on team 97.5 +0.011 PR ★CR R SR CSR RSR
2022-08-18 White Plains Youth Sports Complex 5000m 32:14.4 65th · 4th on team 87.2 +0.024 PR CR R SR CSR RSR

2021 XC 83.1

Handley (AL) · Grade 7

Date Meet Event Result Place Rating Difficulty PR/SR Flags
2021-09-28 Heard County High School 5000m 32:47.9 36th · 36th on team 82.2 -0.022 PR ★CR SR CSR
2021-09-04 Oxford Lake Park (Sports Complex) 5000m 33:18 10th · 1st on team 84.1 +0.002 PR CR R SR CSR RSR

Track & Field

TF speed rating

2025 TF 92.4

Handley (AL) · Grade 10

Date Meet Event Result Place Rating Difficulty PR/SR Flags
2025-04-25 AHSAA Lincoln Section 2025 1600m 7:28.68 26th · 1st on team 91.5 -0.027
2025-04-25 AHSAA Lincoln Section 2025 800m 3:11.8 31st · 2nd on team 96.2 -0.027 SR
2025-04-18 Beauregard 2025 pv DNS -0.032
2025-04-18 Beauregard 2025 800m 3:16.21 22nd · 2nd on team 93.7 -0.032 SR
2025-04-18 Beauregard 2025 1600m 7:30.72 16th · 1st on team 90.9 -0.032
2025-04-14 CCHS Varsity Classic 4 800m 3:16.35 5th · 2nd on team 96.6 -0.001 SR RSR
2025-04-14 CCHS Varsity Classic 4 1600m 8:08.74 3rd · 2nd on team 86.4 -0.001
2025-03-06 Heard County Border Battle 1600m 7:27.51 7th · 2nd on team 93.0 -0.018 SR RSR
2025-03-06 Heard County Border Battle 800m 3:21.8 13th · 1st on team 92.9 -0.018 SR
2025-03-01 Yellow Jacket Invitational pv DNS -0.017
2025-03-01 Yellow Jacket Invitational 1600m 7:41.59 25th · 2nd on team 89.9 -0.017 SR RSR
2025-03-01 Yellow Jacket Invitational 1_5ksteeple 7:51.95 7th · 1st on team -0.017 ★PR SR

2024 TF 85.6

Handley (AL) · Grade 9

Date Meet Event Result Place Rating Difficulty PR/SR Flags
2024-04-27 Lincoln Section 2024 1600m 7:47.29 24th · 2nd on team 88.1 -0.027 SR
2024-03-21 Lincoln Meet 2 pv NH -0.027
2024-03-21 Lincoln Meet 2 800m 3:24.51 23rd · 1st on team 90.0 -0.027 SR RSR
2024-03-12 Handley Invitational 1600m 8:28.33 8th · 2nd on team 82.1 -0.011
2024-03-12 Handley Invitational 800m 3:49.13 11th · 2nd on team 81.9 -0.011
2024-03-07 Heard County Border Battle 1600m 8:17.29 10th · 1st on team 83.2 -0.018 SR
2024-02-23 Opelika Invitational 800m 3:30.71 10th · 1st on team 88.3 -0.022 SR RSR

2023 TF 108.7

Handley (AL) · Grade 8

Date Meet Event Result Place Rating Difficulty PR/SR Flags
2023-04-29 AHSAA Lincoln Sectional 1600m 6:48.38 18th · 2nd on team 109.1 -0.027
2023-04-29 AHSAA Lincoln Sectional 800m 3:05.56 25th · 1st on team 108.7 -0.027 ★PR SR
2023-04-29 AHSAA Lincoln Sectional 3200m 14:59.16 12th · 1st on team 107.0 -0.027
2023-04-22 King of the East Invitational 3200m 14:36.78 7th · 1st on team 111.3 -0.017
2023-04-22 King of the East Invitational 1600m 6:47.16 7th · 2nd on team 110.9 -0.017
2023-04-22 King of the East Invitational 800m 3:06.92 17th · 2nd on team 109.4 -0.017 PR SR
2023-03-08 Heard County Border Battle 1600m 6:44.38 4th · 2nd on team 111.4 -0.018 ★PR ★R SR RSR
2023-03-08 Heard County Border Battle 3200m 14:34.44 2nd · 1st on team 111.2 -0.018 ★PR SR
2023-03-04 Yellow Jacket Invitational 1600m 7:09.83 13th · 2nd on team 105.0 -0.017 PR R SR RSR
2023-03-04 Yellow Jacket Invitational 3200m 15:47.54 10th · 1st on team 103.1 -0.017 PR SR